Location: Lottulo
(44.5000°N, 7.2167°E)
Time: 23:47:54
(UTC+00:00)

Daily predictions for brighter satellites

Satellite Brightness Start Highest point End
(mag) Time Altitude Azimuth Time Altitude Azimuth Time Altitude Azimuth
Cosmos 2154 Rocket 4.3 19:35:27 10° SSE 19:41:31 51° E 19:47:38 10° NNE
Cosmos 44 4.2 19:40:45 10° S 19:45:23 32° ESE 19:49:54 10° NE
CZ-4C R/B 4.1 19:43:15 10° NE 19:46:20 26° E 19:49:18 10° SSE
ARGOS Delta rocket 3.9 19:43:20 10° SSE 19:48:03 83° ENE 19:53:06 10° N
NOSS 2-3 (D) 3.1 19:50:24 10° SSW 19:54:03 80° SE 19:58:00 10° NE
ATLAS 5 CENTAUR R/B 3.8 19:53:13 10° W 19:55:58 23° NW 19:58:59 10° NNE
MOS 1 4.3 19:50:35 10° SSE 19:56:12 74° ENE 20:01:52 10° N
Okean-O 2.6 19:52:00 10° SSE 19:56:22 76° ENE 20:00:47 10° N
NOSS 2-2 (C) 4.1 19:53:28 10° WSW 19:56:35 44° NW 19:59:36 10° NNE
USA 215 3.5 19:50:17 10° ESE 19:56:47 72° NE 20:03:21 10° NW
Ariane Rocket 4.2 19:53:31 10° ESE 19:57:44 28° ENE 20:01:59 10° N
Cosmos 1048 Rocket 4.1 19:53:10 10° NNW 19:58:33 80° ENE 20:03:55 10° SSE
Cosmos 1825 4.5 19:56:12 10° SW 19:59:00 24° WNW 20:01:51 10° NNW
NOSS 2-2 (E) 3.2 19:56:24 10° SW 19:59:42 67° NW 20:02:48 10° NNE
Cosmos 1606 3.7 19:58:44 10° NNE 20:01:48 27° ENE 20:04:31 12° SE
DELTA 2 DEB (DPAF) 4.3 19:58:42 10° N 20:02:54 73° WNW 20:07:03 10° SSW
Cosmos 494 Rocket 4.3 19:58:16 10° NNW 20:03:30 67° WSW 20:08:40 10° S
In-Cosmos 22 Rocket 4.3 19:58:56 10° S 20:04:33 61° E 20:10:04 10° NNE
NOSS 3-1 (C) 3.8 20:07:54 10° S 20:11:53 27° ESE 20:16:22 10° NE
Cosmos 1437 Rocket 4.1 20:10:15 13° SE 20:12:15 20° E 20:14:56 10° NE
Timation 2 Rocket 4.0 20:07:43 10° SSW 20:14:03 88° WNW 20:20:11 10° NNE
Cosmos 1025 Rocket 3.7 20:12:17 10° SSW 20:16:26 55° W 20:20:38 10° N
ATLAS CENTAUR R/B 1.7 20:13:40 10° NW 20:17:38 58° WSW 20:21:19 12° SSE
Cosmos 1125 Rocket 3.5 20:17:33 10° SSW 20:22:50 80° ESE 20:28:09 10° NNE
NOSS 2-3 (E) 4.4 20:19:58 10° WSW 20:23:29 46° NW 20:27:23 10° NNE
Cosmos 1833 Rocket 3.1 20:18:55 10° NNW 20:24:28 52° ENE 20:28:52 16° SE
IRS-1C Rocket 4.1 20:19:48 10° SSE 20:25:00 83° ENE 20:30:19 10° NNW
Cosmos 1455 Rocket 3.2 20:21:01 10° NNW 20:25:24 72° W 20:29:44 10° S
Lacrosse 5 3.9 20:21:02 10° W 20:25:29 30° NNW 20:29:57 10° NE
Orbus 7S? 2.8 20:24:00 10° NW 20:26:41 57° SW 20:28:28 20° SSE
Nadezhda 3 Rocket 4.1 20:20:56 10° N 20:27:07 83° W 20:33:16 10° S
IRS-1A Rocket 4.3 20:22:01 10° SSE 20:27:42 87° ENE 20:33:32 10° NNW
Cosmos 1975 Rocket 3.1 20:23:38 10° S 20:28:05 88° W 20:32:35 10° N
SL-8 Rocket 4.5 20:23:17 11° SSE 20:28:50 43° E 20:34:45 10° NNE
GP-B 4.3 20:25:24 10° NNW 20:29:35 43° W 20:33:44 10° SSW
MetOp-B 4.5 20:29:20 10° S 20:34:38 66° WSW 20:39:59 10° NNW
Cosmos 2150 Rocket 4.2 20:30:29 10° S 20:35:44 57° ESE 20:41:05 10° NNE
Cosmos 2327 Rocket 4.5 20:31:06 10° S 20:37:19 81° E 20:43:41 10° N
Cosmos 2082 Rocket 3.7 20:39:28 10° N 20:44:01 25° NE 20:48:00 12° E
Landsat 4 4.3 20:44:22 24° ESE 20:45:49 36° ENE 20:49:00 10° N
BREEZE-M R/B 3.1 20:43:16 10° SW 20:46:56 63° SE 20:54:35 10° ENE
SPOT 3 Rocket 3.6 20:44:38 19° SSE 20:48:23 71° ENE 20:53:36 10° N
Cosmos 2278 Rocket 2.7 20:44:51 15° S 20:49:11 40° ESE 20:54:26 10° NE
Cosmos 962 Rocket 4.4 20:44:07 10° S 20:50:19 82° E 20:56:29 10° N
NOSS 3-1 (A) 3.9 20:50:04 22° SE 20:51:20 25° ESE 20:55:42 10° ENE
Cosmos 2228 3.0 20:50:17 10° N 20:54:27 63° E 20:56:37 26° SSE
Cosmos 1869 3.5 20:53:12 10° NNW 20:57:00 64° W 20:59:33 20° S
SPOT 5 4.2 20:52:56 10° SSW 20:57:30 37° W 21:02:19 10° NNW
USA 276 3.0 20:56:02 10° W 20:58:42 30° SW 20:59:13 28° SSW
MOS 1 Rocket 3.5 20:55:18 17° S 20:58:50 64° W 21:03:12 10° NNW
ERS-1 Rocket 3.4 20:54:54 14° S 20:59:07 57° W 21:04:04 10° NNW
Cosmos 1536 Rocket 3.7 20:57:14 25° SSE 20:59:27 52° E 21:03:39 10° NNE
Okean O Rocket 4.3 20:58:41 10° WSW 21:00:39 13° W 21:02:36 10° WNW
USA 290 3.3 21:02:43 27° E 21:02:43 27° E 21:05:08 10° NE
Cosmos 2218 Rocket 4.0 20:58:02 17° S 21:02:43 65° E 21:08:50 10° NNE
BREEZE-M DEB (TANK) 3.7 21:00:39 10° WNW 21:03:53 79° SSW 21:10:18 18° ESE
Helios 1B 4.4 20:59:53 10° NNE 21:04:13 80° ESE 21:07:16 19° S
ISS -1.7 21:03:16 10° NW 21:06:07 26° N 21:08:59 10° ENE
Spot 2 Rocket 3.8 21:05:05 19° S 21:08:45 65° WSW 21:13:50 10° NNW
Cosmos 1943 Rocket 2.7 21:09:13 26° SSE 21:11:37 38° ESE 21:16:47 10° NE
Cosmos 614 Rocket 3.8 21:07:40 10° NNW 21:12:46 85° ENE 21:15:20 30° SSE
Cosmos 2341 Rocket 4.1 21:12:16 11° SSW 21:18:19 77° W 21:24:43 10° N
Terra 2.8 21:15:28 16° SSW 21:18:54 41° W 21:23:24 10° NNW
Spot 1 4.4 21:14:59 10° NNE 21:20:04 65° ESE 21:22:40 28° S
COSMOS 2406 4.2 21:17:41 10° NNW 21:22:56 36° NE 21:25:54 22° ESE
MetOp-A 3.6 21:25:34 37° SSE 21:27:17 72° ENE 21:31:33 10° N
ARIANE 5 R/B 3.8 21:27:15 25° E 21:28:38 30° ENE 21:32:33 10° N
ATLAS 3B R/B 3.0 21:27:17 20° S 21:32:09 52° ESE 21:39:26 10° NE
Ariane Rocket 4.0 21:33:17 19° SSW 21:36:29 40° W 21:41:14 10° NNW
Cosmos 1727 Rocket 4.0 21:33:21 10° N 21:39:42 71° E 21:42:35 34° SSE
CZ-4C R/B 3.9 21:33:22 10° NNW 21:39:50 40° NE 21:46:33 14° ESE
USA 215 4.1 21:36:57 24° S 21:40:06 37° SW 21:46:05 10° WNW
Landsat 5 3.6 21:35:49 10° N 21:40:12 78° WNW 21:42:13 31° SSW
Cosmos 1821 Rocket 4.0 21:38:58 29° S 21:42:26 79° E 21:48:49 10° N
CZ-2C R/B 4.1 21:38:32 10° NNE 21:43:00 45° E 21:43:47 41° SE
H-2A R/B 4.2 21:42:23 17° ENE 21:43:03 17° ENE 21:45:36 10° NNE
Cosmos 1238 Rocket 4.3 21:52:55 10° NNE 21:55:57 24° ENE 21:56:00 24° ENE
SeaSat 1 4.1 21:53:40 16° E 21:56:15 24° NE 22:00:11 10° N
Cosmos 1892 Rocket 3.6 21:56:23 54° SE 21:57:03 63° E 22:01:27 10° NNE
ULPM Upper Stage 3.0 21:54:09 10° NW 21:58:29 62° NE 21:59:29 47° ESE
Cosmos 1269 Rocket 4.0 21:56:12 10° NNW 22:01:31 78° WSW 22:03:08 46° S
NOSS 3-1 (C) 4.1 21:57:27 10° WSW 22:02:12 46° NW 22:07:54 10° NNE
BREEZE-M DEB (TANK) 3.7 22:02:46 10° WNW 22:03:35 18° WNW 22:03:35 18° WNW
Cosmos 1833 Rocket 4.3 22:03:31 10° NW 22:08:00 25° WSW 22:10:33 18° SW
Cosmos 2058 2.9 22:10:22 59° E 22:10:23 59° E 22:14:27 10° NNE
Cosmos 407 Rocket 4.3 22:07:35 10° N 22:12:29 41° ENE 22:14:03 33° ESE
Cosmos 1606 Rocket 4.1 22:11:54 10° NNW 22:16:04 48° W 22:16:53 41° SW
Cosmos 1726 Rocket 3.6 22:12:43 10° NNW 22:17:00 64° W 22:17:37 56° SW
Cosmos 2082 Rocket 2.4 22:22:59 10° NNW 22:28:31 59° WSW 22:29:49 47° SSW
Cosmos 1140 Rocket 3.3 22:25:55 10° NNW 22:31:04 87° ENE 22:32:00 61° SSE
Cosmos 2084 Rocket 4.3 22:29:30 10° NW 22:32:33 34° W 22:32:33 34° W
Cosmos 2278 Rocket 3.7 22:28:12 10° WSW 22:33:19 34° NW 22:38:27 10° N
Cosmos 2369 Rocket 3.0 22:33:17 34° ESE 22:33:19 34° ESE 22:38:18 10° NE
Cosmos 2123 Rocket 3.9 22:31:09 10° N 22:37:29 89° WSW 22:39:23 48° S
Cosmos 1812 3.8 22:37:38 10° NNW 22:40:34 34° W 22:40:34 34° W
NOSS 3-1 (A) 3.9 22:37:22 14° WSW 22:41:36 50° NW 22:47:23 10° NNE
PSLV R/B 4.0 22:38:22 10° N 22:42:19 64° WNW 22:42:29 64° W
SL-8 R/B 4.2 22:44:09 43° E 22:44:09 43° E 22:47:33 10° ENE
ISS -2.3 22:39:54 10° WNW 22:41:59 35° NW 22:41:59 35° NW
CRYOSAT 2 4.5 22:40:13 10° NNE 22:45:03 58° E 22:45:24 56° ESE
USA 307 3.4 22:42:01 10° NW 22:45:39 44° NNE 22:45:39 44° NNE
Cosmos 1782 3.1 22:43:33 10° N 22:46:49 56° NE 22:46:49 56° NE
Cosmos 2251 Rocket 3.6 22:42:24 10° NNW 22:47:45 71° ENE 22:48:44 56° SE
Cosmos 489 Rocket 4.5 22:46:58 40° SSW 22:49:21 78° WNW 22:55:37 10° NNE
Cosmos 1378 4.4 22:46:45 10° N 22:48:47 31° NNE 22:48:47 31° NNE
Alouette 2 Rocket 4.0 22:49:19 52° WSW 22:50:07 62° WNW 22:55:49 10° N
Cosmos 2058 Rocket 3.4 22:46:51 10° NNW 22:51:05 53° W 22:51:14 52° WSW
Cosmos 1420 Rocket 4.3 22:52:49 48° ESE 22:53:00 49° ESE 22:58:04 10° NNE
Cosmos 1943 Rocket 3.5 22:50:39 12° WSW 22:55:22 35° NW 23:00:31 10° N
PSLV R/B 4.2 22:52:46 10° NNE 22:56:40 45° E 22:56:40 45° E
Cosmos 1271 Rocket 3.1 22:58:20 60° N 22:58:20 60° N 23:01:29 10° N
Timation 1 Rocket 4.3 22:51:53 10° NNW 22:57:55 78° ENE 22:59:29 51° SE
H-2A R/B 3.7 22:56:59 10° NE 22:59:25 22° ENE 22:59:25 22° ENE
Spot 4 3.9 23:01:14 61° SW 23:01:38 64° WSW 23:06:28 10° NNW
Cosmos 2056 Rocket 3.9 23:02:29 47° ESE 23:02:36 47° ESE 23:07:36 10° NNE
Cosmos 1515 4.4 22:59:53 10° N 23:02:25 46° N 23:02:25 46° N
Meteor 2-19 Rocket 4.5 22:58:23 10° NNW 23:04:31 71° W 23:06:01 51° SSW
ARIANE 5 R/B 4.0 23:04:43 28° WSW 23:04:58 28° W 23:08:51 10° NW
Cosmos 1934 Rocket 4.3 23:03:26 38° SW 23:05:42 58° WNW 23:11:50 10° N
COSMOS 2406 4.0 23:02:02 10° NW 23:07:12 37° WSW 23:07:56 35° WSW
USA 305 4.3 23:04:30 10° NW 23:05:57 22° NW 23:05:57 22° NW
USA 229 DEB 3.4 23:07:40 47° SSW 23:09:38 87° SE 23:16:24 10° NE
USA 229 3.4 23:07:50 48° SSW 23:09:46 86° SE 23:16:31 10° NE
Cosmos 1812 Rocket 3.7 23:06:48 10° N 23:11:14 67° ENE 23:11:14 67° ENE
Cosmos 1602 Rocket 3.5 23:13:06 73° ENE 23:13:06 73° ENE 23:17:11 10° NNE
Lacrosse 4 Rocket 2.4 23:15:05 36° ENE 23:15:05 36° ENE 23:17:51 10° NE
USA 281 3.4 23:11:31 38° SE 23:14:07 65° ENE 23:20:38 10° NNW
H-2A R/B 3.4 23:18:20 36° WNW 23:18:20 36° WNW 23:21:17 10° NNW
Cosmos 1190 Rocket 3.8 23:15:16 10° NNW 23:20:30 83° ENE 23:21:06 70° SE
Lacrosse 5 rocket 2.3 23:23:16 37° NE 23:23:16 37° NE 23:25:47 10° NE
ALOS 2 3.0 23:22:03 52° W 23:22:03 52° W 23:26:10 10° NNW
ATLAS 3B R/B 3.9 23:16:13 10° WSW 23:23:05 44° NW 23:30:25 10° NNE
Cosmos 676 Rocket 4.4 23:19:25 10° NNW 23:24:31 55° ENE 23:25:31 47° ESE
CZ-4C R/B 3.1 23:21:30 10° NW 23:28:48 66° WSW 23:31:34 44° S
Cosmos 2285 Rocket 3.9 23:25:04 10° NNW 23:31:32 84° WSW 23:33:03 55° S
Cosmos 1809 Rocket 4.4 23:25:27 10° N 23:31:40 87° E 23:33:04 57° SSE
Cosmos-2242 3.8 23:27:42 10° NNW 23:31:18 41° WNW 23:31:18 41° WNW
Cosmos 1758 Rocket 3.8 23:31:55 56° WNW 23:31:55 56° WNW 23:36:05 10° N
BREEZE-M DEB (TANK) 3.7 23:16:43 10° SW 23:33:13 71° SSE 23:37:22 10° ENE
SeaSat 1 2.6 23:33:22 57° WSW 23:33:22 57° WSW 23:38:14 10° NW
Cosmos 1238 Rocket 4.5 23:30:35 10° NW 23:33:08 24° WNW 23:33:08 24° WNW
Okean 1-7 Rocket 3.8 23:35:24 61° WNW 23:35:24 61° WNW 23:39:42 10° N
SJ 16-02 4.0 23:33:35 10° NNE 23:35:28 12° NE 23:37:20 10° ENE
Gblst 52 Del rocket 4.1 23:34:16 35° WSW 23:36:43 79° NNW 23:42:14 10° ENE
Exosat Rocket 3.3 23:33:23 10° NNW 23:38:42 89° WSW 23:39:13 73° SSE
Meteor 2-3 Rocket 4.2 23:38:47 43° WSW 23:40:10 54° WNW 23:45:44 10° N
Gbstr 26 Del rocket 3.6 23:35:33 10° WNW 23:40:53 82° SW 23:42:40 49° SE
Cosmos 1459 Rocket 4.3 23:40:37 46° SE 23:42:09 57° E 23:48:19 10° NNE
Cosmos 1833 4.3 23:41:13 10° NNW 23:46:56 72° ENE 23:48:24 50° SE
Cosmos 2297 4.4 23:47:56 34° WSW 23:49:58 49° WNW 23:55:31 10° NNE
Cosmos 1666 3.8 23:51:09 36° NNW 23:51:09 36° NNW 23:53:28 10° N
Cosmos 1656 Rocket 4.5 23:50:27 31° WSW 23:52:27 43° WNW 23:57:45 10° NNE
COSMOS 2455 2.9 23:47:33 10° NNW 23:53:37 74° ENE 23:55:41 43° SE
Lacrosse 5 3.7 23:49:46 10° NW 23:54:12 30° NNE 23:58:39 10° E
USA 234 4.3 23:48:53 10° ENE 23:54:16 27° SE 23:54:20 27° SE
